SWA7167 KBWI-KDAL

Flight info

Callsign SWA7167
Flight time N/A
Altitude 34000
Route FOXHL1 OTTTO Q80 FAREV RAMRD/N0466F360 Q68 LITTR DIRRK HIBIL3
Aircraft B738/M-SDE2E3FGHIRWXY/LB1

Departure

Time 2026-04-29 21:55
Airport Baltimore/Washington International Thurgood Marshall Airport (KBWI)

Arrival

Time N/A
Airport Dallas Love Field (KDAL)
Time Latitude Longitude Altitude Speed Heading
2026-04-29 21:27 39.17889 -76.67188 155 ft 0 kts 55°
2026-04-29 21:40 39.17876 -76.67210 155 ft 4 kts 49°
2026-04-29 21:41 39.17858 -76.67234 155 ft 4 kts 38°
2026-04-29 21:41 39.17835 -76.67251 154 ft 4 kts 11°
2026-04-29 21:41 39.17815 -76.67250 154 ft 1 kts 324°
2026-04-29 21:41 39.17812 -76.67246 154 ft 1 kts 324°
2026-04-29 21:47 39.17812 -76.67247 154 ft 1 kts 324°
2026-04-29 21:48 39.17830 -76.67264 154 ft 4 kts 324°
2026-04-29 21:48 39.17862 -76.67294 153 ft 7 kts 324°
2026-04-29 21:48 39.17910 -76.67338 153 ft 10 kts 324°
2026-04-29 21:48 39.17982 -76.67405 152 ft 14 kts 324°
2026-04-29 21:49 39.18060 -76.67477 152 ft 14 kts 324°
2026-04-29 21:49 39.18135 -76.67547 152 ft 13 kts 324°
2026-04-29 21:49 39.18196 -76.67623 149 ft 11 kts 286°
2026-04-29 21:49 39.18210 -76.67722 145 ft 12 kts 319°
2026-04-29 21:50 39.18277 -76.67786 145 ft 12 kts 324°
2026-04-29 21:50 39.18344 -76.67847 145 ft 12 kts 324°
2026-04-29 21:50 39.18408 -76.67907 146 ft 11 kts 324°
2026-04-29 21:50 39.18471 -76.67965 147 ft 11 kts 324°
2026-04-29 21:51 39.18516 -76.68007 147 ft 4 kts 324°
2026-04-29 21:51 39.18519 -76.68010 147 ft 0 kts 324°
2026-04-29 21:53 39.18533 -76.68022 147 ft 8 kts 324°
2026-04-29 21:53 39.18572 -76.68087 147 ft 9 kts 277°
2026-04-29 21:54 39.18544 -76.68164 145 ft 11 kts 238°
2026-04-29 21:54 39.18509 -76.68175 144 ft 5 kts 153°
2026-04-29 21:54 39.18457 -76.68126 144 ft 27 kts 144°
2026-04-29 21:54 39.18105 -76.67801 145 ft 96 kts 144°
2026-04-29 21:55 39.17390 -76.67138 150 ft 154 kts 144°
2026-04-29 21:55 39.16412 -76.66245 462 ft 179 kts 144°
2026-04-29 21:55 39.15362 -76.65295 1174 ft 188 kts 147°
2026-04-29 21:55 39.14082 -76.64735 1596 ft 210 kts 181°
2026-04-29 21:56 39.12678 -76.65410 1943 ft 228 kts 222°
2026-04-29 21:56 39.11859 -76.67200 2495 ft 243 kts 255°
2026-04-29 21:56 39.11863 -76.69400 3224 ft 251 kts 284°
2026-04-29 21:56 39.12766 -76.71317 4058 ft 258 kts 317°
2026-04-29 21:57 39.14287 -76.72559 4882 ft 257 kts 330°
2026-04-29 21:57 39.15886 -76.73673 5515 ft 268 kts 329°
2026-04-29 21:57 39.17534 -76.74837 6296 ft 267 kts 330°
2026-04-29 21:57 39.19091 -76.76098 7129 ft 263 kts 311°
2026-04-29 21:58 39.20021 -76.78111 7554 ft 269 kts 277°
2026-04-29 21:58 39.20236 -76.80534 8094 ft 276 kts 273°
2026-04-29 21:58 39.20418 -76.83016 8821 ft 279 kts 270°
2026-04-29 21:58 39.20558 -76.85513 9584 ft 280 kts 272°
2026-04-29 21:59 39.20783 -76.88026 10309 ft 285 kts 275°
2026-04-29 21:59 39.21094 -76.90631 10585 ft 306 kts 276°
2026-04-29 21:59 39.21475 -76.93434 10766 ft 328 kts 277°
2026-04-29 21:59 39.21898 -76.96416 10917 ft 348 kts 277°
2026-04-29 22:00 39.22168 -76.99592 11079 ft 366 kts 269°
2026-04-29 22:00 39.22170 -77.02920 11446 ft 376 kts 267°
2026-04-29 22:00 39.22160 -77.06309 12015 ft 379 kts 268°
2026-04-29 22:00 39.22179 -77.09718 12658 ft 380 kts 268°
2026-04-29 22:01 39.21773 -77.13063 13231 ft 381 kts 248°
2026-04-29 22:01 39.20544 -77.16079 13880 ft 380 kts 236°
2026-04-29 22:01 39.18817 -77.18675 14457 ft 384 kts 227°
2026-04-29 22:01 39.16924 -77.21121 14973 ft 387 kts 226°
2026-04-29 22:02 39.15000 -77.23567 15497 ft 390 kts 226°
2026-04-29 22:02 39.13067 -77.26047 16009 ft 393 kts 227°
2026-04-29 22:02 39.11140 -77.28556 16515 ft 395 kts 227°
2026-04-29 22:02 39.09214 -77.31089 17024 ft 398 kts 228°
2026-04-29 22:03 39.07273 -77.33645 17493 ft 400 kts 228°
2026-04-29 22:03 39.05385 -77.36287 17957 ft 401 kts 236°
2026-04-29 22:03 39.04084 -77.39430 18422 ft 399 kts 251°
2026-04-29 22:03 39.03274 -77.42849 18910 ft 400 kts 255°
2026-04-29 22:04 39.02513 -77.46305 19322 ft 403 kts 255°
2026-04-29 22:04 39.01752 -77.49784 19743 ft 405 kts 255°
2026-04-29 22:04 39.00980 -77.53278 20165 ft 408 kts 255°
2026-04-29 22:04 39.00195 -77.56784 20583 ft 410 kts 254°
2026-04-29 22:05 38.99397 -77.60310 20997 ft 411 kts 254°
2026-04-29 22:05 38.98591 -77.63842 21391 ft 413 kts 254°
2026-04-29 22:05 38.96955 -77.70963 22100 ft 417 kts 254°
2026-04-29 22:06 38.96128 -77.74545 22454 ft 419 kts 254°
2026-04-29 22:06 38.95298 -77.78139 22776 ft 421 kts 254°
2026-04-29 22:06 38.94462 -77.81751 23097 ft 423 kts 254°
2026-04-29 22:06 38.93623 -77.85375 23405 ft 424 kts 254°
2026-04-29 22:07 38.92779 -77.89016 23703 ft 426 kts 254°
2026-04-29 22:07 38.91930 -77.92673 23968 ft 428 kts 254°
2026-04-29 22:07 38.91077 -77.96341 24258 ft 429 kts 253°
2026-04-29 22:07 38.90220 -78.00020 24558 ft 430 kts 253°
2026-04-29 22:08 38.89361 -78.03698 24882 ft 430 kts 254°
2026-04-29 22:08 38.88504 -78.07365 25285 ft 429 kts 254°
2026-04-29 22:08 38.87645 -78.11032 25595 ft 429 kts 254°
2026-04-29 22:08 38.86785 -78.14701 25862 ft 430 kts 254°
2026-04-29 22:09 38.85924 -78.18371 26121 ft 431 kts 254°
2026-04-29 22:09 38.85303 -78.22123 26336 ft 432 kts 266°
2026-04-29 22:09 38.85359 -78.25976 26694 ft 430 kts 271°
2026-04-29 22:09 38.85422 -78.29795 27123 ft 426 kts 269°
2026-04-29 22:10 38.85424 -78.33582 27564 ft 423 kts 269°
2026-04-29 22:10 38.85335 -78.37323 28052 ft 417 kts 264°
2026-04-29 22:10 38.84882 -78.40982 28492 ft 414 kts 257°
2026-04-29 22:10 38.84251 -78.44573 28864 ft 412 kts 258°
2026-04-29 22:11 38.83637 -78.48168 29197 ft 411 kts 258°
2026-04-29 22:11 38.83038 -78.51739 29589 ft 409 kts 258°
2026-04-29 22:11 38.82448 -78.55289 30021 ft 406 kts 258°
2026-04-29 22:11 38.81863 -78.58817 30403 ft 403 kts 258°
2026-04-29 22:12 38.81284 -78.62315 30770 ft 401 kts 258°
2026-04-29 22:12 38.80703 -78.65812 31077 ft 400 kts 258°
2026-04-29 22:12 38.80124 -78.69297 31327 ft 400 kts 258°
2026-04-29 22:12 38.79543 -78.72778 31634 ft 399 kts 258°
2026-04-29 22:13 38.78964 -78.76243 31957 ft 397 kts 258°
2026-04-29 22:13 38.78385 -78.79695 32262 ft 395 kts 258°
2026-04-29 22:13 38.77808 -78.83133 32555 ft 394 kts 258°
2026-04-29 22:13 38.77232 -78.86565 32802 ft 393 kts 258°
2026-04-29 22:14 38.76657 -78.89977 33119 ft 391 kts 257°
2026-04-29 22:14 38.76085 -78.93371 33430 ft 389 kts 257°
2026-04-29 22:14 38.75513 -78.96754 33701 ft 388 kts 257°
2026-04-29 22:15 38.74370 -79.03490 33802 ft 390 kts 257°
2026-04-29 22:15 38.73220 -79.10248 33802 ft 386 kts 257°
2026-04-29 22:16 38.72075 -79.16964 33792 ft 386 kts 257°
2026-04-29 22:16 38.70929 -79.23647 33803 ft 383 kts 257°
2026-04-29 22:17 38.69821 -79.30306 33804 ft 382 kts 258°
2026-04-29 22:17 38.68739 -79.36965 33809 ft 382 kts 258°
2026-04-29 22:18 38.67650 -79.43625 33814 ft 383 kts 257°
2026-04-29 22:18 38.66552 -79.50296 33815 ft 384 kts 257°
2026-04-29 22:19 38.65445 -79.56991 33821 ft 385 kts 257°
2026-04-29 22:19 38.64332 -79.63705 33832 ft 386 kts 257°
2026-04-29 22:20 38.63209 -79.70418 33835 ft 386 kts 257°
2026-04-29 22:20 38.62008 -79.77105 33841 ft 386 kts 256°
2026-04-29 22:21 38.60785 -79.83777 33838 ft 385 kts 256°
2026-04-29 22:21 38.59568 -79.90440 33853 ft 384 kts 256°
2026-04-29 22:22 38.58354 -79.97092 33849 ft 384 kts 256°
2026-04-29 22:22 38.57138 -80.03738 33858 ft 384 kts 257°
2026-04-29 22:23 38.56119 -80.09295 33858 ft 383 kts 257°
2026-04-29 22:23 38.54899 -80.15918 33862 ft 383 kts 256°
2026-04-29 22:24 38.53675 -80.22544 33848 ft 383 kts 256°
2026-04-29 22:24 38.52447 -80.29171 33855 ft 382 kts 256°
2026-04-29 22:25 38.51221 -80.35776 33854 ft 382 kts 256°
2026-04-29 22:25 38.49991 -80.42386 33850 ft 383 kts 256°
2026-04-29 22:26 38.48754 -80.49003 33857 ft 383 kts 257°
2026-04-29 22:26 38.47514 -80.55614 33857 ft 383 kts 257°
2026-04-29 22:27 38.46277 -80.62188 33849 ft 384 kts 256°
2026-04-29 22:27 38.45030 -80.68800 33850 ft 384 kts 257°
2026-04-29 22:28 38.43769 -80.75457 33853 ft 383 kts 257°
2026-04-29 22:28 38.42514 -80.82064 33857 ft 383 kts 257°
2026-04-29 22:29 38.41253 -80.88673 33862 ft 384 kts 257°
2026-04-29 22:29 38.39989 -80.95283 33857 ft 384 kts 257°
2026-04-29 22:30 38.38721 -81.01897 33862 ft 384 kts 257°
2026-04-29 22:30 38.37459 -81.08453 33870 ft 384 kts 257°
2026-04-29 22:31 38.35987 -81.14989 33871 ft 384 kts 254°
2026-04-29 22:31 38.34372 -81.21518 33879 ft 384 kts 254°
2026-04-29 22:32 38.32779 -81.27997 33893 ft 383 kts 255°
2026-04-29 22:32 38.31196 -81.34471 33889 ft 382 kts 255°
2026-04-29 22:33 38.29629 -81.40881 33876 ft 381 kts 255°
2026-04-29 22:33 38.28049 -81.47320 33887 ft 381 kts 255°
2026-04-29 22:34 38.26477 -81.53748 33887 ft 380 kts 255°
2026-04-29 22:34 38.24911 -81.60151 33884 ft 378 kts 255°
2026-04-29 22:35 38.23348 -81.66531 33893 ft 377 kts 256°
2026-04-29 22:35 38.21768 -81.72890 33887 ft 377 kts 255°
2026-04-29 22:36 38.20022 -81.79173 33897 ft 376 kts 253°
2026-04-29 22:36 38.18244 -81.85418 33904 ft 375 kts 253°
2026-04-29 22:37 38.16478 -81.91661 33904 ft 375 kts 254°
2026-04-29 22:37 38.14719 -81.97908 33909 ft 375 kts 254°
2026-04-29 22:38 38.12966 -82.04155 33915 ft 375 kts 254°
2026-04-29 22:38 38.11300 -82.10423 33921 ft 374 kts 256°
2026-04-29 22:39 38.09824 -82.16743 33926 ft 373 kts 258°
2026-04-29 22:39 38.08596 -82.23079 33915 ft 372 kts 260°
2026-04-29 22:40 38.07643 -82.29534 33851 ft 373 kts 263°
2026-04-29 22:40 38.06995 -82.35061 33857 ft 372 kts 263°